CAPE
0 0 0 0 0 0 0 0 0 0 0 0 0 0 0 0 0 0 0 0 0 0 0 0 0 0 0 0 0 0 0 0 0 0 0 0 0 0 0 0 0 0 0 0
0 0 0 0 0 0 0 0 0 0 0 0 0 0 0 0 0 0 0 0 0 0 0 0 0 0 0 0 0 0 0 0 0 0 0 0 0 0 0 0 0 0 0 0
0 0 0 0 0 0 0 0 0 0 0 0 0 0 0 0 0 0 0 0 0 0 0 0 0 0 0 0 0 0 0 0 0 0 0 0 0 0 0 0 0 0 0 0
0 0 0 0 0 0 0 0 0 0 0 0 0 0 0 0 0 0 0 0 0 0 0 0 0 0 0 0 0 0 0 0 0 0 0 0 0 0 0 0 0 0 0 0
0 0 0 0 0 0 0 0 0 0 0 0 0 0 0 0 0 0 0 0 0 0 0 0 0 0 0 0 0 0 0 0 0 0 0 0 0 0 0 0 0 0 0 0
0 0 0 0 0 0 0 0 0 0 0 0 0 0 0 0 0 0 0 0 0 0 0 0 0 0 0 0 0 0 0 0 0 0 0 0 0 0 0 0 0 0 0 0
0 0 0 0 0 0 0 0 0 0 0 0 0 0 0 0 0 0 0 0 0 0 0 0 0 0 0 0 0 0 0 0 0 0 0 0 0 0 0 0 0 0 0 0
0 0 0 0 0 0 0 0 0 0 0 0 0 0 0 0 0 0 0 0 0 0 0 0 0 0 0 0 0 0 0 0 0 0 0 0 0 0 0 0 0 0 0 0
0 0 0 0 0 0 0 0 0 0 0 0 0 0 0 0 0 0 0 0 0 0 0 0 0 0 0 0 0 0 0 0 0 0 0 0 0 0 0 0 0 0 0 0
0 0 0 0 0 0 0 0 0 0 0 0 0 0 0 0 0 0 0 0 0 0 0 0 0 0 0 0 0 0 0 0 0 0 0 0 0 0 0 0 0 0 0 0
0 0 0 0 0 0 0 0 0 0 0 0 0 0 0 0 0 0 0 0 0 0 0 0 0 0 0 0 0 0 0 0 0 0 0 0 0 0 0 0 0 0 0 0
0 0 0 0 0 0 0 0 0 0 0 0 0 0 0 0 0 0 0 0 0 0 0 0 0 0 0 0 0 0 0 0 0 0 0 0 0 0 0 0 0 0 0 0
0 0 0 0 0 0 0 0 0 0 0 0 0 0 0 0 0 0 0 0 0 0 0 0 0 0 0 0 0 0 0 0 0 0 0 0 0 0 0 0 0 0 0 0
0 0 0 0 0 0 0 0 0 0 0 0 0 0 0 0 0 0 0 0 0 0 0 0 0 0 0 0 0 0 0 0 0 0 0 0 0 0 0 0 0 0 0 0
0 0 0 0 0 0 0 0 0 0 0 0 0 0 0 0 0 0 0 0 0 0 0 0 0 0 0 0 0 0 0 0 0 0 0 0 0 0 0 0 0 0 0 0
0 0 0 0 0 0 0 0 0 0 0 0 0 0 0 0 0 0 0 0 0 0 0 0 0 0 0 0 0 0 0 0 0 0 0 0 0 0 0 0 0 0 0 0
0 0 0 0 0 0 0 0 0 0 0 0 0 0 0 0 0 0 0 0 0 0 0 0 0 0 0 0 0 0 0 0 0 0 0 0 0 0 0 0 0 0 0 0
0 0 0 0 0 0 0 0 0 0 0 0 0 0 0 0 0 0 0 0 0 0 0 0 0 0 0 0 0 0 0 0 0 0 0 0 0 0 0 0 0 0 0 0
0 0 0 0 0 0 0 0 0 0 0 0 0 0 0 0 0 0 0 0 0 0 0 0 0 0 0 0 0 0 0 0 0 0 0 0 0 0 0 0 0 0 0 1
0 0 0 0 0 0 0 0 0 0 0 0 0 0 0 0 0 0 0 0 0 0 0 0 0 0 0 0 0 0 0 0 0 0 0 0 0 0 0 0 0 0 0 0
0 0 0 0 0 0 0 0 0 0 0 0 0 0 0 0 0 0 0 0 0 0 0 0 0 0 0 0 0 0 0 0 0 0 0 1 0 0 0 0 0 0 0 0
0 0 0 0 0 0 0 0 0 0 0 0 0 0 0 0 0 0 0 0 0 0 0 0 0 0 0 0 0 1 0 0 0 0 0 0 0 0 0 0 0 0 0 0
0 0 0 0 0 0 0 0 0 0 0 0 0 0 0 0 0 0 0 0 0 0 0 0 0 0 0 0 0 3 1 0 0 0 0 0 0 0 0 0 0 0 0 1
0 0 0 0 0 0 0 0 0 0 0 0 0 0 0 0 0 0 0 0 0 0 0 0 0 0 0 0 0 1 1 0 0 0 0 0 0 0 0 0 0 0 0 0
0 0 0 0 0 0 0 0 0 0 0 0 0 0 0 0 0 0 0 0 0 0 0 0 0 1 0 2 3 1 1 0 0 0 0 0 0 0 0 0 1 0 0 0
0 0 0 0 0 0 0 0 0 0 0 0 0 0 0 0 0 0 0 0 0 0 0 0 0 0 0 2 2 1 0 0 0 0 0 0 0 0 0 0 1 3 1 0
0 0 0 0 0 0 0 0 0 0 0 0 0 0 0 0 0 0 0 0 0 0 0 0 0 0 1 1 0 0 0 0 0 0 0 0 0 0 0 0 0 0 0 0
CIN
0 0 0 0 0 0 0 0 0 0 0 0 0 0 0 0 0 0 0 0 0 0 0 0 0 0 0 0 0 0 0 0 0 0 0 0 0 0 0 0 0 0 0 0
0 0 0 0 0 0 0 0 0 0 0 0 0 0 0 0 0 0 0 0 0 0 0 0 0 0 0 0 0 0 0 0 0 0 0 0 0 0 0 0 0 0 0 0
0 0 0 0 0 0 0 0 0 0 0 0 0 0 0 0 0 0 0 0 0 0 0 0 0 0 0 0 0 0 0 0 0 0 0 0 0 0 0 0 0 0 0 0
0 0 0 0 0 0 0 0 0 0 0 0 0 0 0 0 0 0 0 0 0 0 0 0 0 0 0 0 0 0 0 0 0 0 0 0 0 0 0 0 0 0 0 0
0 0 0 0 0 0 0 0 0 0 0 0 0 0 0 0 0 0 0 0 0 0 0 0 0 0 0 0 0 0 0 0 0 0 0 0 0 0 0 0 0 0 0 0
0 0 0 0 0 0 0 0 0 0 0 0 0 0 0 0 0 0 0 0 0 0 0 0 0 0 0 0 0 0 0 0 0 0 0 0 0 0 0 0 0 0 0 0
0 0 0 0 0 0 0 0 0 0 0 0 0 0 0 0 0 0 0 0 0 0 0 0 0 0 0 0 0 0 0 0 0 0 0 0 0 0 0 0 0 0 0 0
0 0 0 0 0 0 0 0 0 0 0 0 0 0 0 0 0 0 0 0 0 0 0 0 0 0 0 0 0 0 0 0 0 0 0 0 0 0 0 0 0 0 0 0
0 0 0 0 0 0 0 0 0 0 0 0 0 0 0 0 0 0 0 0 0 0 0 0 0 0 0 0 0 0 0 0 0 0 0 0 0 0 0 0 0 0 0 0
0 0 0 0 0 0 0 0 0 0 0 0 0 0 0 0 0 0 0 0 0 0 0 0 0 0 0 0 0 0 0 0 0 0 0 0 0 0 0 0 0 0 0 0
0 0 0 0 0 0 0 0 0 0 0 0 0 0 0 0 0 0 0 0 0 0 0 0 0 0 0 0 0 0 0 0 0 0 0 0 0 0 0 0 0 0 0 0
0 0 0 0 0 0 0 0 0 0 0 0 0 0 0 0 0 0 0 0 0 0 0 0 0 0 0 0 0 0 0 0 0 0 0 0 0 0 0 0 0 0 0 0
0 0 0 0 0 0 0 0 0 0 0 0 0 0 0 0 0 0 0 0 0 0 0 0 0 0 0 0 0 0 0 0 0 0 0 0 0 0 0 0 0 0 0 0
0 0 0 0 0 0 0 0 0 0 0 0 0 0 0 0 0 0 0 0 0 0 0 0 0 0 0 0 0 0 0 0 0 0 0 0 0 0 0 0 0 0 0 0
0 0 0 0 0 0 0 0 0 0 0 0 0 0 0 0 0 0 0 0 0 0 0 0 0 0 0 0 0 0 0 0 0 0 0 0 0 0 0 0 0 0 0 0
0 0 0 0 0 0 0 0 0 0 0 0 0 0 0 0 0 0 0 0 0 0 0 0 0 0 0 0 0 0 0 0 0 0 0 0 0 0 0 0 0 0 0 0
0 0 0 0 0 0 0 0 0 0 0 0 0 0 0 0 0 0 0 0 0 0 0 0 0 0 0 0 0 0 0 0 0 0 0 0 0 0 0 0 0 0 0 0
0 0 0 0 0 0 0 0 0 0 0 0 0 0 0 0 0 0 0 0 0 0 0 0 0 0 0 0 0 0 0 0 0 0 0 0 0 0 0 0 0 0 0 0
0 0 0 0 0 0 0 0 0 0 0 0 0 0 0 0 0 0 0 0 0 0 0 0 0 0 0 0 0 0 0 0 0 0 0 0 0 0 0 0 0 0 0 0
0 0 0 0 0 0 0 0 0 0 0 0 0 0 0 0 0 0 0 0 0 0 0 0 0 0 0 0 0 0 0 0 0 0 0 0 0 0 0 0 0 0 0 0
0 0 0 0 0 0 0 0 0 0 0 0 0 0 0 0 0 0 0 0 0 0 0 0 0 0 0 0 -1 0 0 0 0 0 0 0 0 0 0 0 0 0 0 0
0 0 0 0 0 0 0 0 0 0 0 0 0 0 0 0 0 0 0 0 0 0 0 0 0 0 0 0 -1 0 0 0 0 0 0 0 0 0 0 0 0 0 0 0
0 0 0 0 0 0 0 0 0 0 0 0 0 0 0 0 0 0 0 0 0 0 0 0 0 0 0 0 0 0 0 0 0 0 0 0 0 0 0 0 0 0 0 0
0 0 0 0 0 0 0 0 0 0 0 0 0 0 0 0 0 0 0 0 0 0 0 0 0 0 0 -1 0 0 0 0 0 0 0 0 0 0 0 0 -1 0 0 -1
0 0 0 0 0 0 0 0 0 0 0 0 0 0 0 0 0 0 0 0 0 0 0 0 0 0 0 0 0 0 0 0 0 0 0 0 0 0 0 0 0 -1 0 0
0 0 0 0 0 0 0 0 0 0 0 0 0 0 0 0 0 0 0 0 0 0 0 0 0 -1 -1 0 0 0 0 0 0 0 0 0 0 0 0 0 0 0 -1 -1
0 0 0 0 0 0 0 0 0 0 0 0 0 0 0 0 0 0 0 0 0 0 0 0 0 -1 -1 0 -1 0 0 0 0 0 0 0 0 0 0 0 0 0 -1 -1
Wind_Speed
5 6 5 5 5 9 10 6 9 3 11 7 11 14 16 14 9 11 13 14 14 14 12 12 10 10 8 7 5 4 5 5 6 5 5 5 6 6 6 6 6 7 8 9
5 1 5 6 9 12 14 4 13 13 25 9 7 3 6 12 13 15 15 15 15 14 14 14 13 12 10 9 8 7 6 6 5 5 4 4 5 6 5 5 6 6 6 7
5 2 4 7 12 11 6 5 9 10 14 6 5 8 11 12 15 18 17 17 17 17 15 13 13 12 12 10 8 7 7 7 6 5 5 4 4 4 5 4 5 6 6 6
4 3 2 7 2 5 10 9 18 12 8 6 5 4 6 9 16 17 15 16 16 14 13 12 11 11 9 8 8 8 8 8 6 6 5 4 4 4 4 3 4 5 5 6
3 4 7 6 4 7 7 10 11 21 14 5 2 4 8 12 15 18 18 15 14 13 12 11 12 11 10 8 8 7 9 8 7 6 5 4 4 4 4 4 4 4 5 7
2 4 6 6 3 4 3 7 2 9 7 8 5 2 6 2 10 12 10 11 12 12 11 12 12 11 11 10 9 10 9 8 6 6 6 6 5 5 3 3 6 5 7 6
2 4 10 8 5 5 1 8 5 2 5 8 7 7 1 2 4 7 8 12 10 12 13 13 12 13 12 11 13 10 7 6 6 6 6 6 5 4 5 6 6 6 7 7
3 2 10 7 5 7 5 3 4 2 6 9 7 5 4 2 5 8 10 11 12 11 11 10 12 12 13 13 9 8 7 7 6 6 5 5 5 5 5 5 6 6 6 6
12 10 2 7 6 3 3 5 3 2 3 8 7 8 5 5 6 9 10 10 10 11 11 10 12 12 12 10 9 9 8 8 7 5 5 5 5 5 5 4 5 5 5 5
2 5 10 9 8 8 6 9 6 6 5 7 8 7 9 6 6 8 9 10 10 11 12 12 12 12 11 8 9 9 10 8 6 6 5 5 3 3 4 5 5 5 5 5
6 8 8 7 7 8 5 5 7 8 8 9 8 9 8 7 8 8 9 9 11 12 11 12 12 12 10 9 9 9 8 7 7 5 5 4 4 5 5 5 6 5 5 5
6 6 1 6 2 2 6 7 8 7 6 7 8 10 7 9 8 9 10 9 10 11 10 10 11 11 11 10 10 9 8 7 6 5 4 4 4 5 7 10 10 10 12 7
7 5 3 7 7 5 7 8 4 5 8 8 7 9 6 6 7 11 9 11 13 14 12 10 11 11 11 11 11 10 9 7 5 6 4 4 4 4 5 3 6 5 5 7
8 3 13 8 9 9 9 9 6 7 7 7 8 6 7 8 6 11 14 14 11 11 11 11 11 12 11 12 12 11 9 12 5 5 4 4 4 4 3 4 4 4 4 6
15 13 18 19 19 17 7 6 10 14 10 6 7 8 9 10 12 14 10 10 11 11 11 11 12 12 11 12 12 12 9 7 5 4 4 5 4 4 4 3 3 4 3 2
13 13 12 15 19 20 14 12 12 20 9 7 8 10 11 10 8 7 9 12 14 15 15 14 14 12 12 13 12 10 9 12 9 5 5 5 4 4 3 3 3 3 2 1
14 15 11 15 16 17 17 15 14 17 11 9 12 7 8 8 7 9 11 13 13 12 14 15 14 11 12 13 13 8 7 7 11 6 6 5 5 4 3 3 3 2 1 1
9 11 11 12 15 17 20 17 13 14 12 15 8 8 9 11 16 14 13 11 10 9 12 13 12 13 12 13 12 8 8 7 6 7 5 5 5 4 3 3 2 1 1 0
10 13 13 13 13 14 15 18 17 16 14 12 9 13 15 14 14 11 11 12 13 14 14 12 19 17 13 15 14 8 8 8 7 6 6 6 5 4 4 3 2 2 1 1
10 9 11 14 14 13 15 15 16 15 13 10 11 9 11 13 11 12 14 18 17 8 10 14 16 13 12 16 19 8 9 9 8 7 6 5 5 5 4 5 4 3 3 2
11 12 11 12 15 15 13 14 14 13 10 10 12 13 14 8 11 11 11 11 13 12 13 21 14 10 9 13 15 9 9 9 8 7 7 6 6 5 5 5 4 4 3 2
9 11 12 13 13 14 14 13 12 12 9 7 9 8 7 8 10 12 11 9 5 23 13 11 12 19 13 22 10 10 10 10 8 6 7 7 7 6 6 5 5 4 3 3
9 9 10 12 13 14 13 10 10 9 8 7 8 7 9 7 8 8 10 9 8 17 10 9 19 27 27 13 11 11 11 10 9 8 7 7 7 7 6 6 5 5 5 4
10 11 10 10 10 9 14 14 12 9 7 6 5 5 5 4 3 4 2 13 18 19 11 12 20 27 25 10 10 10 10 10 9 8 8 10 6 6 6 7 6 6 5 5
8 10 10 12 11 9 11 11 10 10 9 7 5 3 3 2 4 4 4 6 16 16 10 21 26 29 12 11 11 10 9 9 8 8 8 8 8 7 7 7 6 6 5 4
7 6 7 10 8 7 7 7 7 7 7 6 4 3 1 0 1 3 4 7 7 12 8 10 12 14 12 12 12 11 11 10 10 9 10 8 9 8 7 7 7 6 6 5
6 9 6 6 5 5 5 6 6 7 7 5 5 3 2 1 2 2 5 5 6 7 7 9 10 14 11 11 11 11 10 9 12 9 9 9 9 8 8 8 6 6 5 5
Wind_Direction
258 234 187 214 183 181 203 200 202 253 219 246 216 211 212 210 187 188 197 198 198 201 205 210 208 216 218 217 210 210 240 265 279 293 291 295 302 310 321 323 323 325 333 336
281 122 198 255 233 207 221 243 272 281 277 213 233 126 184 199 188 199 203 201 201 202 201 206 209 210 207 208 204 199 219 243 261 274 285 292 304 315 323 331 325 334 336 334
264 2 304 281 231 186 182 212 201 216 242 164 219 221 223 208 198 204 204 199 198 200 202 199 203 204 210 205 190 202 221 236 243 252 268 280 296 305 319 333 322 328 332 336
233 354 263 248 124 172 196 229 213 260 238 205 221 238 242 210 202 208 203 200 201 196 197 196 193 199 200 198 198 207 222 232 240 244 256 274 285 297 305 310 325 323 322 328
165 202 296 287 189 163 183 280 216 230 242 198 147 306 265 207 207 211 202 198 199 192 188 182 186 188 187 193 206 215 229 237 244 246 258 263 281 292 303 305 312 313 311 318
121 175 225 242 169 179 190 296 351 212 214 162 146 232 259 207 194 201 188 183 178 178 175 176 182 175 183 195 201 219 227 235 245 256 264 269 273 288 285 289 302 312 310 311
187 264 286 244 145 157 107 251 330 151 188 160 199 213 273 337 181 183 182 178 168 168 183 189 169 169 190 196 212 216 219 228 243 260 264 265 278 268 287 295 295 301 304 308
98 139 269 138 107 179 223 310 280 228 188 210 251 293 274 261 198 175 172 170 175 171 180 177 173 174 191 206 205 199 207 216 233 251 254 263 260 277 280 286 291 299 306 310
187 210 229 207 219 200 195 237 271 253 239 217 222 232 243 251 206 195 181 173 175 178 173 178 183 187 194 209 186 193 203 218 227 240 242 248 256 270 283 282 285 299 306 310
122 240 244 232 258 248 230 242 256 229 228 185 229 219 230 230 212 197 186 183 175 171 185 187 188 195 208 184 187 191 205 214 220 233 245 243 245 256 268 277 281 281 290 301
262 286 288 267 231 259 287 262 269 257 221 218 210 233 219 214 212 205 194 179 180 188 192 197 185 195 194 186 185 200 209 212 211 215 237 255 251 254 253 259 244 266 277 281
227 234 188 261 292 233 246 252 252 256 268 231 217 231 199 222 198 193 194 179 188 194 193 191 188 194 191 186 187 197 210 217 216 210 218 231 254 277 257 262 279 275 280 284
266 25 248 286 286 262 275 296 273 248 239 267 237 227 203 216 200 194 191 190 197 198 196 182 188 194 191 184 188 198 210 213 221 220 212 223 234 255 288 296 297 304 320 329
247 306 290 259 263 264 210 241 241 242 236 228 233 209 210 207 189 197 200 201 193 188 189 187 189 198 187 182 187 201 203 213 210 218 218 219 229 247 256 276 305 311 328 348
260 234 253 269 279 275 252 255 253 263 262 230 213 223 200 206 212 212 200 179 179 187 191 189 196 202 178 179 188 194 199 203 199 208 220 222 224 234 247 261 273 289 316 18
265 257 262 264 269 276 265 254 247 270 259 243 229 219 221 221 220 199 178 175 177 198 197 193 200 194 177 179 185 188 194 204 197 199 211 219 223 230 240 247 260 273 302 340
299 291 284 276 274 275 265 262 252 258 263 222 238 220 189 196 200 197 195 197 202 200 194 193 201 175 179 181 181 184 180 191 199 189 203 214 225 223 220 234 245 250 247 289
281 286 287 286 287 282 275 264 246 237 235 243 216 187 191 189 216 212 203 186 194 206 196 192 180 173 178 180 180 177 177 178 190 192 200 210 217 212 198 212 208 186 159 13
311 301 300 295 290 288 287 276 259 245 237 221 189 209 212 211 213 198 169 180 197 208 211 184 182 176 178 181 175 170 173 174 181 192 196 204 196 180 179 186 182 160 164 242
294 296 301 301 299 287 289 287 280 256 239 218 216 212 212 221 198 186 177 198 203 206 156 178 179 178 174 180 179 172 173 175 178 187 183 185 178 182 182 181 174 169 178 191
308 312 315 313 307 303 294 290 284 270 247 206 204 220 221 209 183 183 193 206 204 172 164 175 176 172 168 170 178 172 174 176 179 181 180 179 178 177 182 188 184 173 166 195
314 313 324 320 313 313 310 303 292 285 264 219 222 223 190 191 185 198 212 222 150 174 166 172 175 172 170 174 171 171 173 176 177 171 174 168 177 186 188 178 173 166 170 192
309 315 330 321 319 312 309 318 324 307 278 238 223 210 206 200 181 183 217 190 166 182 173 173 175 175 173 169 170 171 174 173 173 172 173 176 173 176 176 171 168 175 177 187
315 317 323 320 311 326 343 338 333 329 314 298 259 216 173 172 204 210 180 169 171 175 177 172 177 176 170 161 167 171 176 167 169 169 167 169 163 161 160 165 171 181 176 171
299 307 314 324 329 340 332 335 336 343 341 340 333 297 235 210 203 180 164 168 184 172 170 181 176 176 170 165 168 171 175 167 167 163 162 161 159 164 159 168 175 178 166 174
287 295 302 300 297 318 329 332 330 331 330 332 329 350 4 109 132 140 157 161 173 173 168 172 174 174 167 168 166 168 175 165 166 163 164 163 160 163 159 168 180 178 165 165
272 282 286 293 295 319 334 326 341 334 336 327 313 334 313 154 154 140 160 160 166 159 167 174 177 171 165 169 164 171 169 162 162 163 163 163 162 159 166 171 174 162 169 170